Location: South Range
(44.4886°N, 65.7879°W)
Time: 16:49:29
(UTC-03:00)

Iridium 56 - Visible Passes

Search period start: 31 August 2015 00:00
Search period end: 10 September 2015 00:00
Orbit: 776 x 779 km, 86.4° (Epoch: 31 August)

Date Brightness Start Highest point End Pass type
(mag) Time Alt. Az. Time Alt. Az. Time Alt. Az.
31 Aug 6.9 21:06:57 10° SSW 21:11:53 42° W 21:16:51 10° N visible
01 Sep 5.8 20:33:03 10° S 20:38:15 76° W 20:43:30 10° N visible
02 Sep 8.4 21:42:29 10° WSW 21:46:02 18° WNW 21:49:24 10° NNW visible
03 Sep 7.6 21:07:32 10° SW 21:12:08 30° WNW 21:16:41 10° NNW visible
04 Sep 6.5 20:33:19 10° SSW 20:38:24 53° W 20:43:31 10° N visible
05 Sep 8.8 21:44:09 10° W 21:46:26 12° WNW 21:48:27 10° NW visible
06 Sep 8.3 21:08:23 10° SW 21:12:26 22° WNW 21:16:22 10° NNW visible
07 Sep 9.0 05:55:52 10° NE 05:58:32 14° ENE 06:01:27 10° ESE visible
07 Sep 7.3 20:33:46 10° SSW 20:38:36 38° W 20:43:26 10° NNW visible
09 Sep 8.7 21:09:36 10° WSW 21:12:48 16° WNW 21:15:47 10° NW visible
